[TLELIST] Archives

 

Current TLEs

December 12th 2006 PDT

HST 1 20580U 90037B 06345.33610491 .00000694 00000-0 41239-4 0 7584 2 20580 028.4692 334.9912 0003800 260.9292 099.0867 15.00152690711726 ISS (ZARYA) 1 25544U 98067A 06346.49084252 .00043158 00000-0 27240-3 0 2445 2 25544 051.6371 348.2353 0023726 327.8860 165.0892 15.75782262461295 CXO 1 25867U 99040B 06344.91666667 +.00000367 +00000-0 +00000-0 0 00104 2 25867 060.7781 093.2927 5979550 287.4395 358.5698 00.37803074001545 ____________________________________________________________________ These 2-Line ...Continue Reading

Current TLEs

December 11th 2006 PDT

HST 1 20580U 90037B 06343.34023208 +.00000614 +00000-0 +35024-4 0 07696 2 20580 028.4692 348.0049 0003779 239.1693 120.8523 15.00150076711426 ISS (ZARYA) 1 25544U 98067A 06345.53134417 .00024954 00000-0 16027-3 0 2385 2 25544 051.6365 353.1768 0023548 323.6494 122.7473 15.75698229461140 CXO 1 25867U 99040B 06344.91666667 +.00000367 +00000-0 +00000-0 0 00104 2 25867 060.7781 093.2927 5979550 287.4395 358.5698 00.37803074001545 ____________________________________________________________________ These 2-Line ...Continue Reading

Current TLEs

December 10th 2006 PDT

HST 1 20580U 90037B 06343.34023208 +.00000614 +00000-0 +35024-4 0 07696 2 20580 028.4692 348.0049 0003779 239.1693 120.8523 15.00150076711426 ISS (ZARYA) 1 25544U 98067A 06344.52556770 .00026939 00000-0 17281-3 0 2314 2 25544 051.6355 358.3524 0023896 319.1316 178.2450 15.75662881460982 CXO 1 25867U 99040B 06344.91666667 +.00000367 +00000-0 +00000-0 0 00104 2 25867 060.7781 093.2927 5979550 287.4395 358.5698 00.37803074001545 ____________________________________________________________________ These 2-Line ...Continue Reading

Current TLEs

December 9th 2006 PDT

HST 1 20580U 90037B 06342.40882358 .00000577 00000-0 32082-4 0 7566 2 20580 028.4694 354.0756 0003834 229.2100 130.8154 15.00148965711284 ISS (ZARYA) 1 25544U 98067A 06343.51530065 .00026828 00000-0 17257-3 0 2243 2 25544 051.6356 003.5545 0023755 315.2039 207.7850 15.75608255460828 CXO 1 25867U 99040B 06342.29166667 +.00000312 +00000-0 +00000-0 0 00096 2 25867 060.7706 093.3428 5975899 287.5171 001.1478 00.37799762001538 ____________________________________________________________________ These 2-Line ...Continue Reading

Current TLEs

December 8th 2006 PDT

HST 1 20580U 90037B 06340.41294697 +.00000572 +00000-0 +31712-4 0 07641 2 20580 028.4684 007.0901 0003946 209.9094 150.1270 15.00147221710985 ISS (ZARYA) 1 25544U 98067A 06342.49768954 .00025970 00000-0 16760-3 0 2165 2 25544 051.6361 008.7918 0023906 311.5265 195.5736 15.75549432460663 CXO 1 25867U 99040B 06342.29166667 +.00000312 +00000-0 +00000-0 0 00096 2 25867 060.7706 093.3428 5975899 287.5171 001.1478 00.37799762001538 ____________________________________________________________________ These 2-Line ...Continue Reading

Current TLEs

December 7th 2006 PDT

HST 1 20580U 90037B 06341.21129820 .00000554 00000-0 30317-4 0 7555 2 20580 028.4692 001.8829 0003885 217.7428 142.2909 15.00147752711100 ISS (ZARYA) 1 25544U 98067A 06341.54428683 .00022613 00000-0 14694-3 0 2123 2 25544 051.6351 013.7023 0023898 307.9537 187.8824 15.75489441460515 CXO 1 25867U 99040B 06339.62500000 +.00000303 +00000-0 +00000-0 0 00081 2 25867 060.7540 093.3883 5973973 287.6076 358.0480 00.37800369001527 ____________________________________________________________________ These 2-Line ...Continue Reading

Current TLEs

December 6th 2006 PDT

HST 1 20580U 90037B 06339.48153691 .00000589 00000-0 33025-4 0 7540 2 20580 028.4683 013.1617 0003959 200.5669 159.4761 15.00146557710848 ISS (ZARYA) 1 25544U 98067A 06340.53140035 .00017719 00000-0 11642-3 0 2056 2 25544 051.6347 018.9166 0023895 304.0882 203.0963 15.75434981460359 CXO 1 25867U 99040B 06339.62500000 +.00000303 +00000-0 +00000-0 0 00081 2 25867 060.7540 093.3883 5973973 287.6076 358.0480 00.37800369001527 ____________________________________________________________________ These 2-Line ...Continue Reading

Current TLEs

December 5th 2006 PDT

HST 1 20580U 90037B 06338.48359741 +.00000591 +00000-0 +33252-4 0 07593 2 20580 028.4683 019.6672 0003956 190.3436 169.7072 15.00145721710699 ISS (ZARYA) 1 25544U 98067A 06339.51611984 .00077056 00000-0 48842-3 0 1981 2 25544 051.6341 024.1435 0024402 299.9663 205.1611 15.75418745460190 CXO 1 25867U 99040B 06339.62500000 +.00000303 +00000-0 +00000-0 0 00081 2 25867 060.7540 093.3883 5973973 287.6076 358.0480 00.37800369001527 ____________________________________________________________________ These 2-Line ...Continue Reading

Current TLEs

November 30th 2006 PDT

HST 1 20580U 90037B 06333.62695102 .00000511 00000-0 26965-4 0 7504 2 20580 028.4668 051.3316 0003857 142.2850 217.8012 15.00141005709964 ISS (ZARYA) 1 25544U 98067A 06334.52194444 .00031603 00000-0 18118-3 0 1648 2 25544 051.6351 049.9485 0011877 280.8855 271.6992 15.78414921459402 CXO 1 25867U 99040B 06331.66666667 +.00000525 +00000-0 +00000-0 0 00052 2 25867 060.6888 093.5962 5968126 287.6625 354.7840 00.37806148001495 ____________________________________________________________________ These 2-Line ...Continue Reading

Current TLEs

November 29th 2006 PDT

HST 1 20580U 90037B 06331.63106337 +.00000486 +00000-0 +24980-4 0 07618 2 20580 028.4664 064.3425 0003764 121.9861 238.1094 15.00139406709663 ISS (ZARYA) 1 25544U 98067A 06333.49101095 .00018958 00000-0 10931-3 0 1578 2 25544 051.6337 055.2756 0010738 277.5461 172.6111 15.78656159459244 CXO 1 25867U 99040B 06331.66666667 +.00000525 +00000-0 +00000-0 0 00052 2 25867 060.6888 093.5962 5968126 287.6625 354.7840 00.37806148001495 ____________________________________________________________________ These 2-Line ...Continue Reading
  • This mailing list is a public mailing list - anyone may join or leave, at any time.
  • This mailing list is announce-only.

International Space Station (ISS) / Hubble Space Telescope (HST) / Chandra X-Ray Observatory Orbital Data via EMAIL

Privacy Policy:

Private list